Regional Weather Roundup
Issued by NWS Upton, NY

Current Version | Previous Version | Text Only | Print | Product List | Glossary On
Versions: 1 2 3 4 5 6 7 8 9 10 11 12 13 14 15 16 17 18 19 20 21 22 23 24 25 26 27 28 29 30 31 32 33 34 35 36 37 38 39 40 41 42 43 44 45 46 47 48 49 50
000
ASUS41 KOKX 272009
RWROKX

REGIONAL WEATHER ROUNDUP
NATIONAL WEATHER SERVICE NEW YORK NY
400 PM EDT SAT MAY 27 2017

NOTE: "FAIR" INDICATES FEW OR NO CLOUDS BELOW 12,000 FEET WITH NO
SIGNIFICANT WEATHER AND/OR OBSTRUCTIONS TO VISIBILITY.

NYZ071-072-176-178-NJZ106-104-272100-
NEW YORK CITY METRO AREA

CITY           SKY/WX    TMP DP  RH WIND       PRES   REMARKS
Central Park   CLOUDY    70  54  56 VRB5      29.89S
Wall St Helipt CLOUDY    70  56  61 VRB6      29.88S
Bronx Bot Gard   N/A     70  55  60 CALM      29.88F
LaGuardia APRT PTSUNNY   71  53  52 N5        29.86S
Kennedy INTL   CLOUDY    67  57  70 S13       29.88R
Breezy Point   NOT AVBL
Newark/Liberty CLOUDY    73  53  49 W7        29.86S
Teterboro      CLOUDY    71  54  54 NE3       29.86R
$$

NYZ177-179-078>081-272100-
LONG ISLAND NEW YORK

CITY           SKY/WX    TMP DP  RH WIND       PRES   REMARKS
Jones Beach      N/A     61 N/A N/A S6          N/A
Matinecock PT  NOT AVBL
Farmingdale    CLOUDY    65  55  70 S7        29.88S
MacArthur/ISP  CLOUDY    63  56  78 SE10      29.89R
Shirley        CLOUDY    61  54  77 SE6       29.90S
Mt Sinai Harb    N/A    N/A N/A N/A S10         N/A
Westhampton    CLOUDY    62  51  67 S8        29.92S
East Hampton     N/A     60  50  69 S5        29.90R
Montauk          N/A     67  47  48 VRB5      29.91S
$$

NYZ052-065-067-272100-
HUDSON VALLEY

CITY           SKY/WX    TMP DP  RH WIND       PRES   REMARKS
White Plains   CLOUDY    68  54  60 E3        29.87S
Larchmont Harb   N/A     59 N/A N/A NE10        N/A
Croton O-T Hud   N/A     70 N/A N/A MISG        N/A
Newburgh       CLOUDY    68  59  73 CALM      29.88S
Montgomery     CLOUDY    69  56  62 NE3       29.86S
Poughkeepsie   CLOUDY    69  53  56 CALM      29.85F
Albany         PTSUNNY   70  50  49 N6        29.87F
$$

NJZ001-105-106-008-010-013-015-019>022-104-272100-
NEW JERSEY

CITY           SKY/WX    TMP DP  RH WIND       PRES   REMARKS
Newark/Liberty CLOUDY    73  53  49 W7        29.86S
Teterboro      CLOUDY    71  54  54 NE3       29.86R
Caldwell       CLOUDY    73  52  47 NW8       29.88S
Somerville     CLOUDY    71  57  61 VRB5      29.85F
Linden         MOCLDY    72  54  53 NW6       29.87S
Perth Amboy      N/A     70 N/A N/A SW10        N/A
Sussex         CLOUDY    68  56  65 CALM      29.89S
Andover          N/A     69  53  56 CALM      29.88S
Trenton        LGT RAIN  70  56  61 W5        29.88S
Millville      LGT RAIN  66  61  84 W6        29.90S
Atlantic City  NOT AVBL
Wrightstown    LGT RAIN  72  55  56 W5        29.85F
Toms River     CLOUDY    70  57  63 S6        29.89S
Belmar         CLOUDY    68  57  68 SE7       29.89S
$$

PAZ047>061-062-071-272100-
EASTERN PENNSYLVANIA

CITY           SKY/WX    TMP DP  RH WIND       PRES   REMARKS
Philadelphia   CLOUDY    72  52  49 W9        29.89F
Allentown      CLOUDY    73  55  53 SW7       29.88F
Scranton       CLOUDY    69  55  60 CALM      29.89S
$$

CTZ002-004>006-009-010-012-RIZ004-006-007-MAZ004-011-015-272100-
SOUTHERN NEW ENGLAND
 IN CT

CITY           SKY/WX    TMP DP  RH WIND       PRES   REMARKS
Bradley INTL   CLOUDY    69  49  48 VRB3      29.88S
Hartford       CLOUDY    69  51  52 NE5       29.87F
Danbury        CLOUDY    67  53  61 N3        29.88S
Wtrbury/Oxford PTSUNNY   66  52  59 SE7       29.89S
Bridgeport     CLOUDY    64  53  67 SE12      29.88S
Meriden        CLOUDY    67  54  63 S8        29.87S
New Haven      MOSUNNY   66  54  65 S10       29.88S
Chester        MOCLDY    66  52  59 S6        29.89S
Groton         PTSUNNY   62  52  69 S9        29.88S
Wilimantic     CLOUDY    70  51  51 SW5       29.88S

 IN RI

CITY           SKY/WX    TMP DP  RH WIND       PRES   REMARKS
Providence     PTSUNNY   66  52  60 S7        29.88R
Block Island   CLOUDY    64  49  57 W8        29.90S
Westerly       PTSUNNY   65  50  58 S9        29.90R
 IN MA

CITY           SKY/WX    TMP DP  RH WIND       PRES   REMARKS
Boston         MOSUNNY   60  49  66 E12       29.89R
Worcester      CLOUDY    65  44  46 E3        29.88S
Westfield      CLOUDY    69  50  50 SE3       29.87S
Provincetown   SUNNY     58  47  66 N6        29.91R
Nantucket      MOSUNNY   60  49  66 N6        29.90S
$$

ANZ330-335-338-340-345-350-353-355-272100-
COASTAL MARINE OBSERVATIONS


STATION/POSITION TIME  SKY/WX   TEMP    WIND        PRES    VSBY  WAVE
                                AIR SEA DIR/SP/G                  HT/PER
                 (UTC)          (F)     (DEG/KT/KT) (MB)    (MI)  (FT/S)
NY HARB ENTRANCE 1850            62 60  180/  8/ 10 1011.8          2/ 6
20 S FIRE ISLAND 1950            60 59  170/  8/  8 1011.7          3/ 7
GREAT SOUTH BAY  NOT AVBL
23 SSW MONTAUK P 1850            57 57              1013.2          3/ 7
15 E BARNEGAT LI 1930               60                N/A           2/ 8
HUDSON CANYON    1850            60 60  330/  2/  2 1012.6          3/ 8
KINGS POINT      1948            68 59   30/  3/  5 1011.1
EXECUTION ROCKS  1930            65                   N/A
CENTRAL LI SOUND 1930            59     140/  4/  6   N/A           1
EASTERN LI SOUND NOT AVBL
ROBBINS REEF     1948            65     170/ 10/ 14 1011.9
$$


>>>>>>>>>>>>>>>>>>>>>>>>>>>> KEY <<<<<<<<<<<<<<<<<<<<<<<<<<<
>                                                          <
>     SKY/WX - Sky Condition/Present Weather               <
>     TMP    - Temperature in Fahrenheit                   <
>     DP     - Dew Point in Fahrenheit                     <
>     RH     - Relative Humidity in Percent                <
>     WIND   - Direction (from) and Speed in MPH           <
>     PRES   - Mean Sea Level Pressure (inches of Hg)      <
>     WCI    - Wind Chill Index                            <
>     VSB    - VISIBILITY IN MILES                         <
>     HX     - HEAT INDEX                                  <
>     TC     - TEMPERATURE IN CELSIUS                      <
>     VRB    - VARIABLE WIND DIRECTION                     <
>                                                          <
>>>>>>>>>>>>>>>>>>>>>>>>>>>> KEY <<<<<<<<<<<<<<<<<<<<<<<<<<<



USA.gov is the U.S. government's official web portal to all federal, state and local government web resources and services.